Torna al catalogo

QIANFAN DTC 01

AttivoComunicazioniVLEO
NORAD 69472·PAYLOAD·🇨🇳 China
Questo nome del satellite non è ancora stato confermato da fonti ufficiali.

Lanciato Jun 9, 2026 da Jiuquan Satellite Launch Center

Loading…

Prossimi Passaggi (prossime 24 ore)

TLE

AggiornatoSource: Space-Track

Epoca: Sep 14, 2026, 07:37 UTC

1 69472U 26128A   26257.31748951  .00014751  00000-0  25166-3 0  9998
2 69472  54.9908 253.0203 0014683 134.8571 225.3659 15.51529359 15105

Traccia QIANFAN DTC 01 in tempo reale con AllMySat

Download on the App Store